This demonstration page uses our WeatherBlox Daily Observations layout. Learn more.

Left ArrowRight Arrow

Hourly Observations for November 25, 2018

Temp ( °F °C ) Dew Point ( °F °C ) Humidity (%) Winds ( mph kmh ) Pressure ( in mb ) Visibility ( mi km ) Precip ( " mm )
12:53 am 00:53 Clear 66 18.9 19 -7.2 16 16 WSW 21 33 29.57 1002 10 16 0.00 0.00
1:53 am 01:53 Clear 66 18.9 21 -6.1 18 18 W 20 31 29.60 1002 10 16 0.00 0.00
2:53 am 02:53 Clear 64 17.8 23 -5 21 21 W 15 24 29.63 1003 10 16 0.00 0.00
3:53 am 03:53 Clear 62 16.7 24 -4.4 23 23 WNW 10 17 29.67 1005 10 16 0.00 0.00
4:53 am 04:53 Clear 62 16.7 27 -2.8 26 26 NW 18 30 29.71 1006 10 16 0.00 0.00
5:53 am 05:53 Clear 59 15 23 -5 25 25 N 21 33 29.79 1009 10 16 0.00 0.00
6:53 am 06:53 Clear 50 10 27 -2.8 41 41 NNE 16 26 29.91 1013 10 16 0.00 0.00
7:53 am 07:53 Sunny 47 8.3 27 -2.8 46 46 N 6 9 29.98 1015 10 16 0.00 0.00
8:53 am 08:53 Sunny 49 9.4 25 -3.9 39 39 N 13 20 30.03 1017 10 16 0.00 0.00
9:53 am 09:53 Sunny 49 9.4 17 -8.3 28 28 N 17 28 30.09 1019 10 16 0.00 0.00
10:53 am 10:53 Sunny 54 12.2 14 -10 20 20 N 22 35 30.09 1019 10 16 0.00 0.00
1:53 pm 13:53 Sunny 58 14.4 9 -12.8 14 14 N 18 30 30.06 1018 10 16 0.00 0.00
3:53 pm 15:53 Sunny 57 13.9 13 -10.6 17 17 N 16 26 30.07 1018 10 16 0.00 0.00
4:53 pm 16:53 Sunny 55 12.8 13 -10.6 19 19 NNE 13 20 30.10 1019 10 16 0.00 0.00
5:53 pm 17:53 Clear 50 10 15 -9.4 25 25 NE 8 13 30.13 1020 10 16 0.00 0.00
6:53 pm 18:53 Clear 45 7.2 17 -8.3 33 33 E 6 9 30.18 1022 10 16 0.00 0.00
7:53 pm 19:53 Clear 41 5 19 -7.2 41 41 ENE 6 9 30.20 1023 10 16 0.00 0.00
8:53 pm 20:53 Clear 41 5 18 -7.8 39 39 E 3 6 30.23 1024 10 16 0.00 0.00
9:53 pm 21:53 Clear 38 3.3 19 -7.2 46 46 Calm 30.26 1025 10 16 0.00 0.00
10:53 pm 22:53 Clear 34 1.1 20 -6.7 56 56 N 6 9 30.27 1025 10 16 0.00 0.00
11:53 pm 23:53 Clear 31 -0.6 20 -6.7 64 64 N 7 11 30.27 1025 10 16 0.00 0.00

Powered by AerisWeather